Content
SEND FEEDBACK

Daily
Averages
Monthly
Summary
United States of America

SHUSHAN, NEW YORK


Home > North America > United States > New York
Elevation: 490 feet     Latitude: 43 10N     Longitude: 073 19W

WEATHER
 
SELECT A DAY
Number of Records: 181,533;   Date Range: 12/9/98 - 9/30/14
 
SHARE

PRINT THIS DATA

[ ← Previous Day ]
WEATHER ALMANAC - JULY 22, 2014
[ Next Day → ]
[ °C ]   °F
Weather ElementAverageHighLow
Temperature74.8 °F84.9 °F (3:54 pm)59 °F (4:54 am)
Dewpoint65 °F70 °F (6:54 pm)57 °F (4:54 am)
Humidity73.1 %97 % (2:54 am)55 % (3:54 pm)
Barometer30.09 in30.16 in (6:54 am)29.97 in (11:54 pm)
Wind Speed2.1 mph6.9 mph (11:54 pm)
Weather ElementAverage
Visibility8.6 mi
Wind DirectionENE (66.5 °)

Weather ElementTotal
Precipitation---
Cooling Degree Days7 (Base 65)
Growing Degree Days22 (Base 50)
Averaged from 23 records on July 22, 2014
WEATHER CONDITIONS BREAKOUT
WIND DIRECTION BREAKOUT
WEATHER BY HOUR - JULY 22, 2014
[ °C ]   °F
Local TimeTemperatureDewpointHumidityBarometerVisibilityWind DirectionWind SpeedGust SpeedPrecipitationEventsConditions
1:54 AM62.1 °F60.1 °F93 %30.14 in5.0 miCalmClear
2:54 AM61.0 °F60.1 °F97 %30.14 in6.0 miCalmClear
3:54 AM60.1 °F59.0 °F96 %30.14 in5.0 miCalmClear
4:54 AM59.0 °F57.0 °F93 %30.14 in6.0 miCalmClear
5:54 AM59.0 °F57.0 °F93 %30.15 in5.0 miCalmClear
6:54 AM63.0 °F61.0 °F93 %30.16 in5.0 miCalmClear
7:54 AM70.0 °F64.9 °F84 %30.16 in10.0 miCalmClear
8:54 AM75.0 °F66.0 °F73 %30.15 in10.0 miCalmClear
9:54 AM79.0 °F66.0 °F64 %30.14 in10.0 miCalmClear
10:54 AM80.1 °F66.9 °F64 %30.13 in10.0 miCalmScattered Clouds
11:26 AM80.1 °F66.9 °F64 %30.15 in10.0 miNNW (340°)5.8 mphMostly Cloudy
11:33 AM80.1 °F66.9 °F64 %30.14 in10.0 miNW (320°)3.5 mphMostly Cloudy
11:54 AM80.1 °F66.9 °F64 %30.13 in10.0 miVariable4.6 mphMostly Cloudy
1:54 PM82.9 °F66.9 °F58 %30.08 in10.0 miVariable5.8 mphPartly Cloudy
2:54 PM84.0 °F66.9 °F56 %30.06 in10.0 miVariable3.5 mphMostly Cloudy
3:54 PM84.9 °F66.9 °F55 %30.04 in10.0 miSSW (210°)3.5 mphMostly Cloudy
4:54 PM82.9 °F66.9 °F58 %30.03 in10.0 miSW (230°)3.5 mphScattered Clouds
5:54 PM82.9 °F69.1 °F63 %30.02 in10.0 miCalmMostly Cloudy
6:54 PM81.0 °F70.0 °F69 %30.02 in10.0 miCalmMostly Cloudy
7:54 PM80.1 °F68.0 °F67 %30.01 in10.0 miVariable3.5 mphPartly Cloudy
8:54 PM78.1 °F66.9 °F68 %30.00 in6.0 miNorthHaze
10:54 PM77.0 °F68.0 °F74 %29.99 in10.0 miSW (220°)5.8 mphClear
11:54 PM77.0 °F66.9 °F71 %29.97 in10.0 miSSW (210°)6.9 mphScattered Clouds
Hourly data recorded from KDDH, located miles away from Shushan, New York







STORIES FROM OUR PARTNERS